Content
SEND FEEDBACK

Daily
Averages
Monthly
Summary
Canada

VANCOUVER - UNIVERSITY, BRITISH COLUMBIA


Home > North America > Canada > British Columbia
Elevation: 249 feet     Latitude: 49 15N     Longitude: 123 15W

WEATHER
 
SELECT A DAY
Number of Records: 194,938;   Date Range: 1/1/95 - 9/17/14
 
SHARE

PRINT THIS DATA

[ ← Previous Day ]
WEATHER ALMANAC - FEBRUARY 4, 2013
[ Next Day → ]
[ °C ]   °F
Weather ElementAverageHighLow
Temperature44.2 °F48.2 °F (2:00 pm)41 °F (6:00 am)
Dewpoint31.3 °F41 °F (8:00 am) (7:00 pm)
Humidity82.5 %93 % (6:00 am)68 % (4:00 pm)
Wind Speed8.6 mph16.1 mph (10:00 am)
Wind Gust18.4 mph (12:00 pm)
Weather ElementAverage
Visibility12.7 mi
Wind DirectionESE (113.9 °)

Weather ElementTotal
Precipitation---
Heating Degree Days20.4 (Base 65)
Averaged from 33 records on February 4, 2013
WEATHER CONDITIONS BREAKOUT
WIND DIRECTION BREAKOUT
WEATHER BY HOUR - FEBRUARY 4, 2013
[ °C ]   °F
Local TimeTemperatureDewpointHumidityBarometerVisibilityWind DirectionWind SpeedGust SpeedPrecipitationEventsConditions
1:00 AM42.8 °F39.2 °F87 %30.17 in8.0 miEast (100°)8.1 mphMostly Cloudy
3:00 AM42.8 °F39.2 °F87 %30.15 in8.0 miEast (80°)10.4 mphMostly Cloudy
3:06 AM42.8 °F0.0 °F8.0 miEast (90°)8.1 mphRainLight Rain Showers
3:56 AM42.8 °F0.0 °F6.0 miESE (110°)8.1 mphLight Drizzle
4:00 AM42.0 °F39.0 °F87 %30.14 in6.0 miEast (100°)9.2 mphRainLight Drizzle
4:00 AM42.8 °F39.2 °F87 %30.14 in6.0 miESE (110°)8.1 mphLight Drizzle
4:54 AM42.8 °F0.0 °F8.0 miEast (90°)6.9 mphMostly Cloudy
5:00 AM42.8 °F39.2 °F87 %30.14 in8.0 miEast (100°)6.9 mphMostly Cloudy
6:00 AM41.0 °F39.2 °F93 %30.12 in8.0 miESE (110°)6.9 mphMostly Cloudy
7:00 AM42.8 °F39.2 °F87 %30.11 in12.0 miSE (130°)8.1 mphMostly Cloudy
7:51 AM42.8 °F0.0 °F12.0 miEast (100°)6.9 mphMostly Cloudy
8:00 AM44.6 °F41.0 °F87 %30.13 in15.0 miSE (130°)6.9 mphMostly Cloudy
9:00 AM44.6 °F41.0 °F87 %30.13 in15.0 miSE (140°)9.2 mphMostly Cloudy
9:43 AM44.6 °F0.0 °F15.0 miSE (140°)12.7 mphMostly Cloudy
10:00 AM45.0 °F40.0 °F75 %30.13 in15.0 miSE (140°)13.8 mphPartly Cloudy
10:00 AM44.6 °F39.2 °F81 %30.13 in15.0 miSSE (150°)16.1 mphMostly Cloudy
11:00 AM46.4 °F39.2 °F76 %30.14 in20.0 miSSE (150°)12.7 mphMostly Cloudy
12:00 PM46.4 °F41.0 °F81 %30.13 in20.0 miSSE (160°)12.7 mph18.4 mphMostly Cloudy
1:00 PM46.4 °F39.2 °F76 %30.11 in15.0 miSSE (150°)10.4 mphOvercast
2:00 PM48.2 °F41.0 °F76 %30.08 in15.0 miSE (130°)11.5 mphOvercast
3:00 PM46.4 °F39.2 °F76 %30.07 in15.0 miSE (140°)11.5 mphOvercast
4:00 PM47.0 °F40.0 °F68 %30.04 in15.0 miEast (100°)8.1 mphOvercast
4:00 PM46.4 °F39.2 °F76 %30.04 in15.0 miEast (100°)8.1 mphOvercast
5:00 PM44.6 °F39.2 °F81 %30.03 in15.0 miEast (90°)5.8 mphMostly Cloudy
6:00 PM44.6 °F39.2 °F81 %30.00 in15.0 miEast (90°)5.8 mphMostly Cloudy
7:00 PM44.6 °F39.2 °F81 %29.98 in15.0 miESE (110°)5.8 mphOvercast
7:41 PM44.6 °F0.0 °F15.0 miEast (90°)3.5 mphRainLight Rain
8:00 PM44.6 °F41.0 °F87 %29.95 in10.0 miENE (60°)9.2 mphRainLight Rain
9:00 PM44.6 °F41.0 °F87 %29.92 in10.0 miEast (100°)8.1 mphRainLight Rain
9:34 PM42.8 °F0.0 °F15.0 miEast (90°)8.1 mphOvercast
10:00 PM44.0 °F40.0 °F80 %29.90 in15.0 miESE (120°)5.8 mphRainLight Rain
10:00 PM42.8 °F39.2 °F87 %29.90 in15.0 miSE (130°)5.8 mphOvercast
11:00 PM42.8 °F39.2 °F87 %29.87 in15.0 miSE (130°)5.8 mphOvercast
Hourly data recorded from CYVR, located miles away from Vancouver - University, British Columbia







STORIES FROM OUR PARTNERS